Temp
9 9 9 9 9 10 10 10 10 10 10 10 10 10 10 10 10 11 11 11 10 10 10 10 9 7 9 8 12 15 14 14 14 14 13 14 14 14 14 15 15 14 15 16 16 16 17
8 8 8 8 9 9 9 9 9 10 10 9 10 10 10 10 10 10 11 10 10 10 10 7 7 6 6 5 14 14 13 13 13 13 13 13 14 14 14 14 13 15 14 14 15 15 16
5 6 6 7 8 9 9 9 9 9 9 9 9 9 10 10 10 10 11 10 10 10 10 6 6 5 5 10 14 13 12 13 13 12 13 13 14 13 14 13 14 14 13 13 14 15 15
4 4 5 5 8 8 8 8 8 8 9 9 9 9 9 9 9 10 10 10 9 10 9 6 5 5 5 13 11 13 12 12 12 12 12 13 13 13 13 14 13 12 11 11 13 15 16
3 4 4 6 7 7 7 8 8 8 8 8 9 9 9 9 9 9 9 9 9 9 6 5 5 4 5 11 13 14 13 13 13 12 12 13 13 13 13 11 8 10 8 10 12 15 14
3 3 4 5 6 6 7 7 7 7 8 8 8 8 9 8 8 7 8 6 6 5 5 5 5 4 8 13 13 14 14 13 12 12 13 13 13 10 9 8 7 9 9 9 10 12 14
3 3 3 4 4 5 6 6 7 7 7 8 8 8 8 8 7 7 6 6 6 4 5 7 7 7 11 12 12 13 13 13 12 12 10 12 9 8 9 9 10 11 10 10 11 12 12
3 3 3 3 3 4 4 5 5 6 6 7 7 7 8 7 7 5 5 6 7 6 5 7 8 7 10 11 10 13 13 12 12 10 10 10 9 11 11 10 10 10 10 10 12 13 13
3 3 3 3 3 3 3 4 4 5 5 6 6 7 7 6 6 5 5 6 7 6 6 7 9 6 7 9 8 12 12 12 11 10 10 9 11 12 11 11 11 11 11 11 11 10 11
3 3 3 3 3 3 3 3 3 4 4 5 6 6 6 5 4 5 5 6 6 6 2 7 8 9 8 9 9 11 13 12 11 10 10 9 11 11 11 11 11 10 10 10 9 8 8
3 3 3 3 2 2 3 3 3 3 4 5 6 6 5 4 4 5 6 6 6 6 5 12 11 11 10 10 13 13 12 11 11 10 10 10 12 10 10 11 11 10 9 9 8 7 6
2 2 2 2 2 2 2 3 3 3 3 4 5 5 5 5 5 5 6 6 5 6 4 11 12 10 9 11 13 13 11 11 12 10 10 10 11 11 11 11 11 8 8 8 7 6 4
2 2 2 2 2 2 2 2 2 3 3 3 4 5 5 6 4 5 6 5 5 4 10 12 12 11 11 10 11 12 12 10 9 8 8 10 9 9 10 9 9 7 7 7 5 6 6
1 2 2 2 2 2 2 2 2 2 3 3 4 5 5 5 4 6 5 5 5 8 9 14 13 13 11 11 11 12 11 9 9 10 8 8 8 9 10 10 9 7 7 6 6 6 6
1 1 1 1 2 2 2 2 2 2 2 3 3 3 4 5 5 5 5 5 7 8 11 11 12 11 11 12 12 12 11 11 10 9 9 8 9 12 10 10 10 7 6 8 7 6 4
1 0 0 1 1 1 1 2 2 2 2 2 2 3 3 4 5 5 4 5 6 9 10 10 9 10 10 11 11 11 10 11 11 10 10 10 9 10 11 11 10 8 8 6 5 6 7
-0 -0 0 0 1 1 1 1 1 1 2 1 2 2 3 4 4 4 4 4 7 9 9 10 9 9 10 10 11 9 10 10 10 10 11 9 9 8 10 9 8 8 8 7 7 5 6
-1 -1 -0 -0 -0 0 0 0 1 1 1 1 1 2 1 2 2 0 3 5 7 8 9 8 9 9 8 9 10 10 9 10 9 9 9 7 7 7 9 10 10 10 9 8 5 6 5
-1 -1 -1 -1 -1 -0 -0 0 0 1 1 1 0 0 1 1 2 2 2 4 6 6 8 8 8 8 8 8 8 8 9 8 9 8 8 6 6 6 6 8 9 8 9 10 8 6 6
-2 -1 -1 -1 -1 -1 -0 -0 0 0 0 0 -0 -0 -0 -0 0 2 2 3 4 5 5 7 8 8 8 8 9 8 7 8 8 7 6 7 5 6 7 8 8 8 10 9 8 5 6
-2 -2 -1 -1 -1 -1 -1 -1 -1 -0 -0 -0 -1 -0 0 -0 -0 1 3 4 4 4 6 5 6 7 6 6 8 7 7 7 8 7 7 4 4 6 8 9 9 9 10 10 9 8 6
-2 -2 -2 -2 -2 -1 -1 -1 -1 -1 -1 -1 -1 -0 -1 -0 2 1 1 3 4 5 6 4 4 4 6 6 6 6 6 5 6 6 5 5 3 4 5 8 9 9 10 9 10 9 5
-3 -2 -2 -2 -2 -2 -2 -1 -1 -1 -1 -1 -1 0 1 1 0 1 2 3 4 4 6 7 6 6 7 6 7 8 7 6 5 5 4 4 3 4 5 6 6 6 7 7 5 5 6
-3 -3 -3 -2 -2 -2 -1 -1 -1 -1 -1 -1 -1 -0 0 1 1 2 3 3 3 4 5 6 6 6 7 7 7 6 6 6 6 5 5 3 3 3 4 5 5 5 6 6 3 2 3
-3 -3 -3 -3 -3 -2 -2 -2 -1 -1 -1 -1 -1 -1 -0 -0 1 1 1 1 3 3 4 4 6 6 7 5 2 2 2 3 4 6 5 5 3 3 3 4 5 5 5 3 3 0 0
-3 -2 -2 -2 -2 -2 -2 -2 -1 -1 -1 -1 -1 -0 0 0 0 2 3 2 1 1 3 3 3 4 6 1 2 3 2 3 4 5 7 6 5 3 3 4 3 2 4 3 3 -0 -2
-3 -3 -2 -1 -2 -2 -2 -2 -1 -1 -1 -1 -1 -1 -0 -0 0 -0 2 1 3 2 1 1 2 0 5 0 -1 1 3 6 4 4 4 4 3 4 4 3 2 3 4 4 1 0 -2
-2 -2 -2 -2 -1 -1 -2 -1 -1 -1 -1 -1 -1 -1 -1 -0 -0 -0 0 2 2 2 1 1 1 2 1 1 2 1 1 3 2 2 5 4 4 3 3 1 2 -0 2 2 -3 -3 -3
-2 -2 -2 -2 -2 -1 -1 -1 -1 -1 -1 -1 -1 -1 -1 0 -0 -0 -0 0 2 3 4 2 3 2 4 2 2 2 2 2 3 3 4 2 1 1 1 -1 -2 -2 -2 -2 -1 -3 -4
Height
1500 1502 1503 1503 1505 1506 1508 1509 1510 1512 1513 1513 1513 1514 1514 1514 1513 1513 1513 1512 1512 1512 1511 1511 1510 1510 1511 1508 1502 1502 1501 1500 1500 1502 1504 1504 1504 1504 1505 1501 1500 1498 1495 1495 1496 1495 1492
1494 1495 1496 1497 1498 1500 1502 1503 1505 1506 1508 1509 1509 1509 1510 1510 1509 1509 1509 1509 1508 1508 1507 1510 1508 1509 1509 1506 1496 1495 1495 1495 1497 1498 1502 1503 1503 1504 1503 1500 1501 1496 1494 1493 1493 1494 1490
1489 1490 1491 1492 1493 1495 1497 1498 1500 1501 1502 1505 1504 1505 1505 1506 1505 1504 1504 1504 1503 1504 1505 1505 1506 1508 1505 1490 1491 1490 1491 1491 1493 1494 1497 1501 1503 1504 1502 1499 1497 1495 1492 1490 1491 1490 1488
1484 1485 1486 1488 1488 1490 1492 1494 1497 1497 1499 1501 1501 1501 1502 1502 1501 1500 1500 1499 1499 1500 1501 1502 1504 1507 1495 1486 1482 1479 1483 1485 1489 1492 1494 1498 1501 1501 1502 1501 1497 1497 1494 1494 1486 1487 1484
1479 1480 1480 1482 1484 1485 1488 1489 1492 1493 1494 1496 1497 1497 1499 1498 1497 1496 1495 1495 1495 1496 1497 1500 1502 1507 1491 1481 1478 1477 1476 1479 1484 1490 1491 1494 1497 1498 1501 1503 1508 1501 1502 1490 1490 1482 1483
1473 1475 1475 1477 1479 1481 1482 1486 1487 1489 1490 1492 1491 1493 1493 1495 1493 1492 1491 1492 1492 1493 1495 1497 1500 1507 1486 1479 1476 1476 1475 1478 1482 1487 1491 1490 1492 1495 1500 1506 1513 1504 1500 1492 1493 1487 1482
1468 1470 1472 1471 1474 1476 1477 1481 1481 1484 1486 1487 1487 1490 1489 1489 1488 1487 1490 1492 1494 1495 1490 1481 1483 1482 1480 1478 1476 1476 1475 1476 1482 1485 1488 1485 1493 1495 1491 1494 1490 1492 1493 1488 1484 1482 1479
1464 1465 1468 1468 1469 1471 1473 1475 1477 1479 1481 1483 1484 1484 1484 1485 1484 1485 1487 1489 1488 1490 1482 1476 1474 1473 1473 1477 1477 1474 1475 1476 1478 1483 1485 1488 1485 1482 1486 1490 1490 1491 1491 1485 1469 1472 1476
1457 1460 1462 1464 1465 1466 1468 1470 1472 1474 1476 1477 1478 1480 1479 1481 1481 1483 1485 1487 1488 1488 1483 1466 1462 1458 1463 1468 1467 1467 1469 1470 1474 1480 1481 1484 1477 1476 1482 1486 1486 1486 1485 1479 1478 1475 1473
1451 1454 1457 1458 1459 1462 1462 1466 1466 1469 1471 1472 1473 1475 1475 1477 1482 1480 1481 1485 1488 1488 1491 1462 1459 1450 1453 1460 1458 1454 1461 1468 1472 1473 1477 1477 1473 1475 1477 1479 1479 1483 1480 1478 1480 1482 1482
1443 1445 1448 1451 1453 1455 1458 1459 1462 1462 1465 1466 1468 1470 1471 1472 1474 1476 1479 1482 1486 1490 1505 1449 1449 1448 1448 1455 1449 1447 1453 1463 1465 1468 1471 1468 1465 1472 1475 1473 1475 1478 1478 1480 1482 1484 1488
1434 1437 1439 1442 1446 1448 1450 1452 1454 1456 1459 1461 1463 1465 1464 1466 1469 1475 1479 1482 1486 1493 1494 1448 1444 1446 1453 1452 1448 1448 1453 1460 1460 1467 1465 1464 1462 1465 1467 1469 1471 1476 1479 1480 1483 1487 1497
1426 1429 1432 1435 1438 1442 1444 1446 1448 1451 1452 1456 1456 1457 1457 1459 1461 1471 1477 1481 1487 1490 1449 1442 1441 1443 1443 1447 1448 1447 1451 1457 1461 1471 1470 1462 1460 1460 1462 1471 1471 1474 1481 1488 1500 1487 1481
1418 1421 1425 1428 1430 1434 1437 1440 1442 1445 1446 1450 1450 1451 1449 1453 1459 1466 1471 1478 1477 1449 1446 1433 1434 1437 1441 1441 1444 1444 1449 1456 1454 1455 1465 1469 1467 1457 1455 1458 1465 1473 1477 1488 1486 1483 1475
1410 1413 1417 1421 1424 1426 1429 1433 1437 1440 1442 1444 1445 1445 1447 1449 1456 1461 1465 1465 1453 1444 1438 1440 1436 1439 1438 1434 1436 1439 1442 1444 1444 1449 1458 1462 1459 1448 1449 1451 1456 1473 1480 1471 1479 1481 1490
1402 1406 1410 1413 1416 1420 1422 1425 1430 1435 1437 1440 1440 1442 1442 1446 1450 1454 1458 1452 1441 1438 1436 1438 1442 1435 1436 1432 1435 1435 1439 1437 1440 1439 1440 1449 1454 1448 1446 1450 1455 1460 1466 1478 1484 1481 1471
1396 1399 1403 1406 1410 1413 1416 1419 1423 1428 1432 1436 1438 1439 1437 1442 1447 1449 1440 1440 1437 1436 1438 1439 1437 1437 1434 1432 1429 1434 1433 1435 1436 1437 1437 1443 1449 1452 1446 1447 1451 1459 1461 1466 1471 1476 1469
1387 1392 1396 1400 1403 1406 1410 1414 1417 1423 1428 1430 1433 1433 1434 1436 1441 1438 1433 1433 1433 1431 1435 1436 1434 1432 1434 1432 1431 1430 1433 1430 1435 1437 1441 1445 1448 1453 1444 1437 1438 1442 1447 1456 1471 1472 1469
1381 1385 1389 1393 1397 1400 1404 1408 1413 1416 1422 1425 1428 1428 1431 1433 1433 1433 1435 1431 1431 1429 1429 1429 1430 1428 1427 1430 1435 1431 1429 1432 1433 1434 1438 1443 1453 1451 1448 1444 1440 1440 1442 1444 1452 1462 1462
1374 1378 1382 1386 1391 1394 1399 1403 1407 1413 1415 1421 1424 1423 1427 1427 1426 1428 1428 1427 1426 1428 1428 1427 1425 1426 1424 1424 1424 1430 1430 1430 1432 1436 1438 1441 1449 1449 1442 1434 1434 1438 1435 1437 1446 1460 1455
1368 1371 1375 1380 1384 1388 1393 1397 1401 1406 1411 1415 1415 1415 1416 1418 1422 1422 1421 1420 1421 1425 1422 1423 1423 1420 1420 1424 1422 1426 1428 1432 1433 1434 1437 1441 1448 1443 1435 1429 1431 1430 1430 1429 1434 1441 1448
1361 1365 1369 1373 1378 1382 1386 1390 1395 1400 1406 1409 1410 1410 1412 1411 1415 1420 1420 1414 1415 1414 1417 1420 1423 1423 1416 1417 1418 1423 1425 1431 1432 1432 1435 1437 1447 1447 1443 1431 1428 1429 1427 1428 1429 1434 1445
1355 1359 1363 1366 1371 1375 1380 1384 1388 1394 1399 1397 1402 1404 1405 1404 1409 1413 1409 1408 1408 1411 1410 1409 1411 1414 1410 1410 1414 1416 1417 1421 1424 1428 1436 1439 1444 1445 1437 1437 1437 1440 1431 1430 1439 1444 1444
1349 1352 1356 1359 1364 1368 1372 1377 1382 1387 1390 1393 1395 1401 1401 1400 1402 1400 1401 1404 1403 1405 1406 1404 1405 1406 1409 1411 1413 1417 1419 1422 1423 1426 1428 1437 1441 1444 1442 1439 1440 1437 1433 1431 1441 1451 1448
1341 1344 1348 1352 1356 1360 1365 1369 1374 1378 1383 1387 1392 1395 1396 1396 1395 1398 1398 1400 1401 1402 1405 1404 1401 1403 1406 1409 1422 1428 1433 1431 1429 1425 1427 1428 1438 1444 1444 1438 1438 1436 1438 1441 1440 1455 1454
1332 1334 1338 1342 1347 1352 1357 1361 1366 1371 1377 1382 1386 1387 1390 1392 1392 1392 1390 1392 1396 1398 1402 1399 1399 1402 1402 1411 1421 1422 1431 1425 1429 1426 1425 1428 1430 1439 1441 1436 1445 1443 1437 1437 1439 1455 1453
1319 1322 1326 1331 1337 1342 1348 1353 1359 1366 1372 1377 1379 1382 1385 1388 1388 1389 1387 1387 1387 1390 1395 1398 1398 1400 1399 1411 1424 1422 1417 1413 1423 1424 1425 1428 1435 1432 1432 1438 1441 1437 1437 1438 1450 1451 1452
1314 1317 1320 1325 1330 1335 1341 1347 1354 1361 1367 1371 1374 1378 1383 1384 1385 1385 1383 1382 1382 1383 1387 1393 1397 1404 1402 1406 1409 1414 1417 1415 1419 1421 1416 1423 1427 1430 1433 1443 1441 1439 1439 1441 1447 1448 1451
1311 1312 1315 1320 1325 1331 1337 1343 1349 1355 1361 1367 1370 1377 1380 1384 1384 1381 1377 1375 1375 1378 1380 1387 1388 1391 1393 1399 1402 1404 1413 1414 1413 1417 1414 1426 1424 1431 1436 1438 1440 1439 1439 1440 1443 1446 1452
Wind_Speed
32 31 29 27 28 28 27 26 23 23 21 21 20 19 18 17 17 17 16 16 17 17 19 18 15 15 13 8 20 14 17 20 24 14 10 6 5 2 3 3 10 5 5 11 22 25 26
27 26 26 26 26 25 24 22 21 21 19 17 15 15 15 16 16 16 16 16 17 17 17 15 14 12 11 9 4 3 8 13 9 9 10 9 6 6 11 4 2 11 17 15 14 19 22
22 21 21 23 22 22 21 20 18 16 15 15 13 14 14 16 16 16 16 16 17 17 15 11 13 12 15 33 17 19 19 19 16 14 13 8 8 12 10 7 6 13 12 13 8 9 6
24 24 22 21 20 19 17 15 15 14 14 13 13 13 14 15 16 17 16 16 16 15 13 9 12 15 15 18 19 19 17 22 20 19 16 13 13 15 8 8 10 6 5 3 4 1 9
24 24 21 19 17 15 15 14 14 14 13 12 13 13 15 15 15 17 16 15 15 11 7 9 12 13 15 6 9 5 13 17 23 20 20 16 18 11 7 3 4 3 6 8 4 10 4
18 20 19 17 16 15 15 15 15 14 13 13 13 14 14 14 14 15 14 10 7 4 6 11 13 8 16 6 5 7 7 8 10 8 10 16 10 4 0 4 5 6 6 7 3 6 3
18 17 17 16 15 16 16 16 16 15 15 15 14 15 14 13 13 14 8 4 3 4 17 15 11 11 5 6 5 12 12 11 8 8 6 7 4 9 16 9 8 4 9 17 14 6 8
20 18 17 16 16 15 15 15 16 16 16 15 15 14 14 13 13 7 7 6 5 4 12 22 31 35 36 21 6 18 17 15 11 6 4 2 12 12 8 8 12 13 15 17 20 8 6
22 23 22 20 18 16 14 14 15 15 15 15 15 14 12 11 7 10 10 7 4 4 7 9 27 26 27 27 19 24 22 18 5 8 8 10 6 9 10 11 14 14 16 16 15 5 5
30 29 26 24 21 20 17 17 15 15 16 16 15 14 11 8 9 15 16 6 3 5 3 6 9 9 16 10 9 34 36 17 5 11 6 9 19 15 14 10 9 10 3 4 3 5 7
35 34 33 35 31 28 26 23 20 18 18 18 17 14 12 15 8 19 9 8 8 1 3 1 5 4 13 14 4 5 29 18 18 7 7 8 1 8 14 16 5 2 2 3 1 1 4
29 28 27 25 24 24 26 25 23 23 21 20 18 15 15 18 23 13 6 16 12 4 9 4 8 8 8 9 3 7 10 16 15 7 9 8 2 6 7 4 4 7 3 1 2 2 3
31 31 29 27 25 23 22 23 21 20 20 18 17 17 20 22 26 20 15 19 3 5 3 5 6 9 10 8 4 4 7 11 6 4 5 3 5 5 6 4 3 4 5 3 3 3 6
32 33 32 31 28 26 24 21 23 20 18 16 16 15 18 21 20 23 28 5 7 8 11 3 3 1 9 8 8 9 6 6 5 3 3 5 6 8 5 9 7 5 7 4 6 3 4
30 29 29 28 29 31 31 26 22 20 16 14 12 10 18 23 23 29 27 10 11 6 4 7 15 9 7 9 8 11 13 14 10 10 9 5 5 2 6 4 8 5 4 2 2 3 1
29 29 28 26 25 24 24 25 23 19 16 11 8 10 19 25 26 35 14 10 11 11 10 6 4 6 5 7 7 10 8 1 11 11 7 6 6 4 3 6 3 6 7 3 2 4 4
28 25 24 25 25 25 22 22 21 19 17 13 9 5 8 23 27 19 6 10 14 17 8 9 7 5 4 2 3 5 7 1 2 1 9 5 5 4 6 8 10 4 4 2 3 2 2
26 26 25 24 24 24 22 21 22 20 18 17 9 4 7 20 8 3 6 11 16 6 13 14 4 5 6 5 3 3 8 6 4 2 4 2 4 7 12 4 9 10 11 10 3 4 2
24 24 23 24 24 23 24 22 19 21 23 23 7 6 10 23 8 10 3 8 7 5 10 5 13 9 7 6 4 4 2 3 7 4 5 6 3 2 2 4 1 7 8 11 10 3 5
26 24 23 24 24 23 23 25 24 22 23 25 7 2 7 14 9 7 7 6 9 12 11 9 8 9 5 6 5 6 4 2 3 5 13 10 4 5 4 3 4 5 8 9 9 3 3
25 24 24 24 25 25 24 24 25 25 22 24 9 5 8 5 6 11 7 6 16 8 9 2 6 14 11 6 6 5 3 4 3 13 5 6 5 5 7 3 4 5 2 8 12 12 7
24 23 24 24 24 22 22 23 23 24 22 28 10 5 8 5 8 16 8 11 17 14 12 7 7 13 8 8 6 8 8 4 5 4 5 3 2 2 2 11 3 4 3 2 2 2 8
23 23 23 24 24 25 23 23 23 25 27 20 22 20 6 7 5 9 14 18 11 16 9 23 17 15 9 6 7 5 8 13 8 7 4 6 4 3 3 7 5 5 2 5 5 7 6
23 23 23 24 26 25 26 25 23 27 32 32 20 16 9 3 7 11 9 18 23 21 10 14 24 11 5 17 16 13 11 6 6 5 7 6 5 1 2 6 4 2 5 8 14 6 6
25 27 28 29 28 27 28 27 25 31 32 34 25 21 9 3 4 8 10 12 18 25 19 8 10 6 25 12 4 3 2 3 3 4 6 6 4 2 3 4 3 4 4 5 4 3 3
35 35 34 33 31 30 28 27 28 31 28 29 36 23 12 3 5 8 5 16 12 4 9 5 9 16 22 3 3 5 4 4 5 5 9 8 4 3 3 4 6 3 3 6 4 1 5
20 25 29 29 29 30 31 30 29 29 29 28 26 20 14 7 4 2 5 5 10 6 3 3 6 1 15 4 3 3 3 6 6 7 7 5 3 7 2 2 0 1 4 3 4 4 11
10 15 19 22 24 25 26 28 28 29 30 31 27 24 13 3 4 5 7 15 7 12 5 7 6 3 1 3 3 2 3 3 3 4 6 9 6 3 3 2 5 1 0 5 7 13 15
13 12 13 18 22 26 25 28 30 31 29 32 24 22 13 7 3 3 6 3 18 17 14 18 5 7 8 3 1 3 2 0 4 3 3 1 5 5 2 2 3 6 10 14 11 19 13
Wind_Direction
255 255 256 254 256 257 258 260 260 263 265 267 268 270 272 274 277 281 281 284 283 286 290 294 293 295 305 284 264 260 246 254 274 275 295 278 281 269 239 269 323 270 269 302 305 308 307
249 250 253 252 252 253 256 256 258 259 261 261 261 262 266 270 274 278 281 283 283 282 286 280 291 274 282 267 293 177 238 241 243 268 276 280 242 260 300 268 297 303 304 306 322 322 309
254 251 256 258 256 256 255 253 251 249 251 255 258 262 267 272 276 278 281 285 282 283 284 267 287 273 264 261 281 265 238 240 235 242 241 273 256 276 309 331 299 307 308 311 292 262 274
253 257 259 260 255 252 250 248 248 247 254 259 263 266 271 276 279 282 285 283 280 284 280 251 284 270 259 296 276 268 242 233 224 216 231 243 262 278 280 287 312 325 287 303 218 157 264
250 250 251 246 248 242 242 242 246 249 252 258 267 272 277 280 282 286 288 284 281 282 252 236 277 262 268 284 263 225 212 224 220 234 244 250 243 255 267 310 349 269 265 253 325 217 279
246 243 240 244 241 241 239 243 247 252 256 260 264 270 273 276 282 287 290 289 286 250 202 235 240 276 254 252 248 194 167 175 193 207 233 221 193 147 94 121 232 222 262 277 252 299 296
244 243 242 240 244 245 246 247 249 254 257 261 266 270 273 274 276 281 256 194 158 252 217 202 198 214 218 329 229 185 182 163 188 204 192 178 171 200 213 206 233 251 265 272 273 251 302
247 248 251 251 248 251 251 253 254 255 258 266 267 270 274 274 270 269 238 198 185 297 283 255 252 251 249 258 288 204 188 176 182 191 151 307 237 227 210 216 240 247 259 267 282 280 315
242 245 246 251 252 252 255 258 259 260 264 267 268 269 267 268 268 228 242 243 206 296 274 246 242 236 237 239 228 220 195 193 170 186 195 202 223 203 208 223 241 245 251 270 267 339 197
243 243 246 246 249 253 254 260 259 263 265 267 269 267 258 247 205 211 235 225 167 282 333 270 211 247 191 196 237 229 212 203 204 212 198 237 228 240 247 243 244 267 339 42 12 17 298
247 247 246 246 251 255 258 258 261 263 269 270 267 265 244 220 218 201 212 189 159 180 347 172 170 175 178 175 324 197 209 198 226 211 162 223 141 213 233 241 178 227 123 109 118 38 354
239 237 239 243 250 252 252 254 257 261 267 269 268 261 238 223 218 220 190 159 154 95 247 305 149 155 158 219 276 116 154 194 224 221 251 246 236 171 214 155 151 139 96 120 79 125 261
239 239 243 247 250 250 251 250 253 260 261 270 268 257 237 229 213 198 175 167 115 197 274 221 196 156 182 181 213 168 161 194 162 150 236 318 216 182 145 147 154 104 81 307 321 230 239
240 243 246 249 249 249 251 254 252 257 255 264 268 257 229 218 206 192 170 173 204 216 228 37 82 162 198 156 224 214 172 195 250 160 148 188 303 163 185 200 182 159 160 182 230 234 282
240 242 245 252 256 252 247 249 249 248 249 255 260 232 214 211 199 194 169 197 210 207 191 231 284 278 248 208 189 195 213 217 200 176 189 191 246 277 173 154 140 155 185 178 293 239 344
243 245 244 243 243 245 241 238 239 239 237 240 249 224 223 212 205 190 196 212 220 226 275 329 256 214 234 219 189 188 171 221 227 189 168 207 252 242 168 106 143 152 153 109 123 228 239
236 241 243 240 244 242 234 227 226 226 224 221 212 218 220 209 197 203 214 210 231 228 254 250 232 246 239 275 152 177 190 156 168 316 202 148 151 273 139 201 171 151 187 150 161 207 244
227 233 235 237 238 235 231 225 220 218 214 213 202 215 199 189 205 209 203 210 231 238 234 250 285 221 219 184 218 226 192 189 146 140 185 312 151 222 214 186 181 192 199 181 156 224 225
225 228 229 233 233 234 227 227 219 214 210 205 219 188 191 189 203 217 241 214 237 236 223 238 221 210 206 198 208 222 259 115 157 107 180 157 188 216 269 344 225 194 210 203 196 119 200
226 227 229 227 231 230 228 224 220 218 209 209 199 161 185 205 227 223 198 213 221 233 248 253 255 239 211 196 199 189 172 224 185 140 140 147 170 225 231 182 151 170 200 188 171 170 208
227 229 228 231 228 228 229 227 219 215 209 208 207 201 201 179 220 217 175 240 218 229 218 312 248 224 200 201 202 207 160 156 148 161 152 134 197 219 259 190 184 195 179 220 201 207 186
227 227 225 224 221 225 224 223 219 214 204 203 191 189 194 163 189 205 197 214 231 221 222 221 214 267 198 178 183 193 156 190 188 202 137 129 181 28 280 266 259 229 220 94 192 51 73
229 229 226 225 224 225 224 224 222 210 199 209 213 233 236 179 166 185 216 226 238 224 246 229 208 215 222 213 157 153 175 172 168 151 167 144 145 157 231 203 263 298 225 120 113 45 139
228 227 229 229 228 229 230 229 225 208 208 208 196 191 193 215 194 205 222 214 231 236 234 259 221 212 211 147 110 73 71 129 138 157 155 151 121 104 256 121 215 102 47 110 110 67 77
235 234 234 229 229 229 229 226 223 210 209 217 219 213 205 220 211 181 208 238 237 240 251 257 233 245 165 120 84 80 8 40 288 174 163 126 114 203 183 203 102 161 153 155 149 184 340
247 241 236 233 229 227 224 223 217 211 208 209 217 209 192 141 230 255 225 210 229 204 205 222 249 182 155 101 128 161 185 157 182 181 202 203 188 168 187 172 208 239 145 127 114 252 177
234 236 231 227 226 224 221 218 213 206 204 210 217 201 171 186 219 281 234 210 169 150 157 152 149 286 160 130 150 163 176 166 164 179 175 179 190 210 190 199 240 83 134 117 94 214 149
219 211 210 211 209 212 209 208 202 203 210 204 189 202 201 203 261 273 262 217 173 175 147 161 103 245 3 100 131 175 124 218 139 205 172 180 173 175 143 113 251 23 130 185 139 122 135
224 230 203 205 206 197 195 195 193 200 201 208 187 197 180 212 232 315 303 195 197 179 149 167 161 174 179 111 183 118 114 145 170 160 48 176 176 157 166 174 88 59 105 133 138 141 136